Tracking 20232 objects as of 21-Jan-2020
HD Live streaming from Space Station
objects crossing your sky now

SL-8 DEB

Track SL-8 DEB now!
10-day predictions


NORAD ID: 21943
Int'l Code: 1991-009CE
Perigee: 1,494.1 km
Apogee: 1,712.2 km
Inclination: 74.0 °
Period: 118.1 minutes
Semi major axis: 7974 km
RCS: 0.0463 m2 (small)
Launch date: February 12, 1991
Source: Commonwealth of Independent States (former USSR) (CIS)
Launch site: PLESETSK MISSILE AND SPACE COMPLEX (PKMTR)

Note: This is SATELLITE DEBRIS
aabbcc
Your satellite tracking list
Your tracking list is empty




NASA's NSSDC Master Catalog

Two Line Element Set (TLE):
1 21943U 91009CE  20020.54545015  .00000025  00000-0  37115-3 0  9998
2 21943  73.9513 196.0899 0136773 132.8870 286.3738 12.19200635285064
Source of the keplerian elements: AFSPC